Weather History for Point Mugu, CA

Change the Weather History Date:

Friday, November 23, 2012

  Actual Average Record
Temperature  
Mean Temperature 54 °F -  
Max Temperature 58 °F 63 °F 70 °F (1997)
Min Temperature 51 °F 45 °F 41 °F (2010)
Degree Days  
Heating Degree Days 10    
Growing Degree Days 4 (Base 50)    
Moisture  
Dew Point 54 °F    
Average Humidity 99    
Maximum Humidity 100    
Minimum Humidity 88    
Precipitation  
Precipitation 0.00 in - - ()
Sea Level Pressure  
Sea Level Pressure 30.12 in    
Wind  
Wind Speed 7 mph (NE)    
Max Wind Speed 12 mph    
Max Gust Speed 17 mph    
Visibility 1 miles    
Events Fog    
Averages and records for this station are not official NWS values.
T = Trace of Precipitation, MM = Missing Value Source: NWS Daily Summary

Daily Weather History Graph

Daily Weather History Graph

Search for Another Location

Airport:

Trip Planner

Search our weather history database for the weather conditions in past years. The results will help you decide how hot, cold, wet, or windy it might be!

Date:

Astronomy

Nov. 23, 2012 Rise Set
Actual Time 6:37 AM PST 4:48 PM PST
Civil Twilight 6:10 AM PST 5:15 PM PST
Nautical Twilight 5:39 AM PST 5:46 PM PST
Astronomical Twilight 5:09 AM PST 6:16 PM PST
Moon 1:56 PM PST (11/23) 2:11 AM PST (11/23)
Length of Visible Light 11h 05m
Length of Day
10h 11m
Waxing Gibbous, 80% of the Moon is Illuminated
Nov 23
Waxing Gibbous
Nov 28
Full
Dec 6
Last Quarter
Dec 13
New
Dec 19
First Quarter

Hourly Weather History & Observations

Time (PST) Temp. Dew Point Humidity Pressure Visibility Wind Dir Wind Speed Gust Speed Precip Events Conditions
12:02 AM 55.4 °F 55.4 °F 100% 30.12 in 0.5 mi ESE 11.5 mph - N/A   Overcast
12:09 AM 55.4 °F 55.4 °F 100% 30.12 in 1.0 mi ESE 9.2 mph - N/A   Overcast
12:15 AM 55.4 °F 55.4 °F 100% 30.12 in 2.0 mi ESE 8.1 mph - N/A   Overcast
12:29 AM 53.6 °F 53.6 °F 100% 30.12 in 0.8 mi East 9.2 mph - N/A   Overcast
12:36 AM 53.6 °F 53.6 °F 100% 30.12 in 0.5 mi ESE 5.8 mph 17.3 mph N/A   Overcast
12:41 AM 55.4 °F 55.4 °F 100% 30.12 in 1.0 mi SE 9.2 mph - N/A   Overcast
12:47 AM 55.4 °F 55.4 °F 100% 30.12 in 2.0 mi SE 10.4 mph - N/A   Overcast
12:51 AM 55.4 °F 55.4 °F 100% 30.12 in 0.5 mi ESE 10.4 mph - N/A   Overcast
12:54 AM 54.0 °F 54.0 °F 100% 30.12 in 0.2 mi East 8.1 mph - N/A   Overcast
1:54 AM 52.0 °F - N/A% 30.12 in 0.2 mi NE 5.8 mph - N/A   Unknown
2:54 AM 51.1 °F 51.1 °F 100% 30.13 in 0.2 mi NE 3.5 mph - N/A   Unknown
3:54 AM 51.1 °F - N/A% 30.12 in 0.2 mi ENE 8.1 mph - N/A   Unknown
4:54 AM 51.1 °F - N/A% 30.12 in 0.2 mi NE 4.6 mph - N/A   Unknown
5:54 AM 52.0 °F 52.0 °F 100% 30.13 in 0.2 mi NE 3.5 mph - N/A Fog Fog
6:54 AM 51.1 °F 51.1 °F 100% 30.15 in 0.1 mi Calm Calm - N/A Fog Fog
7:54 AM 53.1 °F 53.1 °F 100% 30.17 in 0.1 mi Calm Calm - N/A Fog Fog
8:54 AM 54.0 °F 54.0 °F 100% 30.18 in 0.2 mi SSE 5.8 mph - N/A Fog Fog
9:54 AM 54.0 °F 54.0 °F 100% 30.18 in 0.2 mi SSE 8.1 mph - N/A Fog Fog
9:59 AM 57.2 °F 53.6 °F 88% 30.17 in 1.0 mi Calm Calm - N/A   Mist
10:39 AM 57.2 °F 53.6 °F 88% 30.16 in 1.5 mi Calm Calm - N/A   Overcast
10:54 AM 56.3 °F 54.0 °F 92% 30.16 in 2.0 mi SSW 4.6 mph - N/A   Overcast
11:54 AM 57.0 °F 55.9 °F 96% 30.14 in 2.0 mi West 4.6 mph - N/A   Overcast
12:54 PM 58.3 °F 54.9 °F 88% 30.12 in 2.0 mi South 8.1 mph - N/A   Overcast
1:54 PM 55.9 °F 55.9 °F 100% 30.10 in 2.0 mi South 6.9 mph - N/A   Overcast
2:54 PM 58.1 °F 55.2 °F 90% 30.10 in 2.0 mi South 6.9 mph - N/A   Overcast
3:01 PM 55.4 °F 55.4 °F 100% 30.10 in 3.0 mi Variable 6.9 mph - N/A   Overcast
3:54 PM 55.9 °F 55.9 °F 100% 30.09 in 3.0 mi West 3.5 mph - N/A   Overcast
4:05 PM 55.4 °F 55.4 °F 100% 30.09 in 2.0 mi WNW 3.5 mph - N/A   Overcast
4:48 PM 55.4 °F 55.4 °F 100% 30.08 in 3.0 mi NW 3.5 mph - N/A   Scattered Clouds
4:54 PM 55.0 °F 55.0 °F 100% 30.09 in 3.0 mi NW 4.6 mph - N/A   Scattered Clouds
5:54 PM 54.0 °F 54.0 °F 100% 30.09 in 3.0 mi NNW 4.6 mph - N/A   Clear
6:03 PM 53.6 °F 53.6 °F 100% 30.09 in 2.5 mi NNW 4.6 mph - N/A   Scattered Clouds
6:14 PM 53.6 °F 53.6 °F 100% 30.09 in 2.0 mi NNW 4.6 mph - N/A   Mostly Cloudy
6:28 PM 53.6 °F 53.6 °F 100% 30.09 in 0.8 mi NNW 5.8 mph - N/A   Mist
6:30 PM 53.6 °F 53.6 °F 100% 30.09 in 0.2 mi NW 5.8 mph - N/A Fog Fog
6:54 PM 54.0 °F - N/A% 30.09 in 0.2 mi NW 8.1 mph - N/A Fog Fog
7:54 PM 53.1 °F 53.1 °F 100% 30.10 in 0.2 mi North 5.8 mph - N/A Fog Fog
8:54 PM 53.1 °F 53.1 °F 100% 30.11 in 0.2 mi NNW 4.6 mph - N/A Fog Fog
9:54 PM 52.0 °F - N/A% 30.10 in 0.2 mi NNW 4.6 mph - N/A Fog Fog
10:44 PM 51.8 °F 51.8 °F 100% 30.10 in 0.8 mi North 3.5 mph - N/A   Mist
10:46 PM 51.8 °F 51.8 °F 100% 30.09 in 1.2 mi North 3.5 mph - N/A   Overcast
10:54 PM 51.1 °F 51.1 °F 100% 30.10 in 0.5 mi North 4.6 mph - N/A Fog Fog
11:01 PM 51.8 °F 51.8 °F 100% 30.10 in 0.2 mi NE 3.5 mph - N/A Fog Fog
11:54 PM 54.0 °F 54.0 °F 100% 30.10 in 0.2 mi SSE 8.1 mph - N/A Fog Fog